Location: *
(50.3194°N, 7.1067°E)
Time: 07:01:21
(UTC+00:00)

SPOT 5 - Pass Details

Date: 22 September 2019
Orbit: 624 x 814 km, 98.3° (Epoch: 22 October)

Event Time Altitude Azimuth Distance (km) Brightness Sun altitude
Exits shadow 21:05:29 44° 347° (NNW) 1,034 3.9 -31.5°
Drops below altitude 10° 21:08:56 10° 346° (NNW) 2,313 6.2 -31.9°
Sets 21:11:19 0° 346° (NNW) 3,270 7.1 -32.1°
